User: anonymous   Login
Location: Ripley
(48.3812°N, 115.4473°W)
Time: 22:33:52
(UTC+00:00)
Language:

FO-99 - Orbit

View from above orbital plane
View from above orbital plane
View from above satellite
View from above satellite

Ground track
Ground track

The orbit data is extracted from the following two-line orbital elements,

1 43937U 19003F   22179.54324317  .00007193  00000-0  24128-3 0  9999
2 43937  97.1290 212.4631 0022553 113.2170 247.1450 15.30930906191670
Epoch (UTC): 28 June 2022 13:02:16
Eccentricity: 0.0022553
inclination: 97.1290°
perigee height: 457 km
apogee height: 488 km
right ascension of ascending node: 212.4631°
argument of perigee: 113.2170°
revolutions per day: 15.30930906
mean anomaly at epoch: 247.1450°
orbit number at epoch: 19167

The dashed part of the orbit path shows where the satellite is in the earth's shadow,  

DLR